EA1QW Weather Reports


Display with metric or nautical units.
time (UTC)temp
F
wind
direction
speed
MPH
gust
MPH
rain 1hr
in
rain 24hr
in
rain mn
in
humidity
%
barometer
mb
20260831145017 72 355 5.0 12.0 0.00 0.00 0.00 72 1021.5
20260831144525 73 11 7.0 12.0 0.00 0.00 0.00 70 1021.5
20260831144014 73 350 4.0 11.0 0.00 0.00 0.00 70 1021.5
20260831143520 73 355 4.0 11.0 0.00 0.00 0.00 71 1021.5
20260831143008 74 346 3.0 8.0 0.00 0.00 0.00 71 1021.5
20260831142518 73 304 4.0 8.0 0.00 0.00 0.00 71 1021.5
20260831142046 73 299 5.0 9.0 0.00 0.00 0.00 73 1021.5
20260831141514 73 28 4.0 9.0 0.00 0.00 0.00 74 1021.6
20260831141022 72 284 3.0 11.0 0.00 0.00 0.00 74 1021.5
20260831140511 73 342 6.0 11.0 0.00 0.00 0.00 73 1021.5
20260831140019 73 311 4.0 12.0 0.00 0.00 0.00 72 1021.6
20260831135507 73 20 5.0 12.0 0.00 0.00 0.00 72 1021.6
20260831135016 73 285 3.0 11.0 0.00 0.00 0.00 72 1021.6
20260831134544 73 300 6.0 11.0 0.00 0.00 0.00 72 1021.7
20260831134012 73 344 4.0 11.0 0.00 0.00 0.00 71 1021.7
20260831133520 73 325 5.0 11.0 0.00 0.00 0.00 72 1021.6
20260831133009 73 284 6.0 11.0 0.00 0.00 0.00 71 1021.6
20260831132517 73 314 5.0 11.0 0.00 0.00 0.00 72 1021.6
20260831132025 73 29 4.0 12.0 0.00 0.00 0.00 71 1021.7
20260831131513 73 313 6.0 12.0 0.00 0.00 0.00 71 1021.8
20260831131022 73 13 4.0 9.0 0.00 0.00 0.00 71 1021.7
20260831130509 73 326 3.0 10.0 0.00 0.00 0.00 70 1021.7
20260831130017 73 22 4.0 10.0 0.00 0.00 0.00 70 1021.7
20260831125526 72 29 3.0 9.0 0.00 0.00 0.00 71 1021.7
20260831125013 72 11 3.0 12.0 0.00 0.00 0.00 74 1021.8
20260831124542 72 300 3.0 12.0 0.00 0.00 0.00 73 1021.8
20260831124009 73 325 4.0 10.0 0.00 0.00 0.00 72 1021.8
20260831123517 73 334 4.0 10.0 0.00 0.00 0.00 73 1021.8
20260831123025 72 328 3.0 11.0 0.00 0.00 0.00 74 1021.8
20260831122534 72 289 5.0 12.0 0.00 0.00 0.00 72 1021.9
20260831122022 73 302 7.0 11.0 0.00 0.00 0.00 71 1021.9
20260831121531 72 348 3.0 10.0 0.00 0.00 0.00 72 1022.0
20260831121019 72 259 7.0 10.0 0.00 0.00 0.00 72 1021.8
20260831120507 72 30 2.0 10.0 0.00 0.00 0.00 73 1022.0
20260831120014 72 292 5.0 9.0 0.00 0.00 0.00 71 1021.9
20260831115523 73 309 4.0 9.0 0.00 0.00 0.00 70 1021.9
20260831115011 73 309 2.0 8.0 0.00 0.00 0.00 68 1021.8
20260831114519 73 309 3.0 8.0 0.00 0.00 0.00 66 1021.8
20260831114007 74 284 4.0 8.0 0.00 0.00 0.00 64 1021.9
20260831113516 74 12 3.0 9.0 0.00 0.00 0.00 66 1021.8
20260831113022 74 311 2.0 9.0 0.00 0.00 0.00 67 1021.8
20260831112510 73 289 3.0 9.0 0.00 0.00 0.00 67 1021.9
20260831112019 73 316 4.0 8.0 0.00 0.00 0.00 64 1021.9
20260831111507 73 331 3.0 12.0 0.00 0.00 0.00 68 1021.9
20260831111014 73 321 4.0 12.0 0.00 0.00 0.00 67 1021.9
20260831110523 73 311 4.0 10.0 0.00 0.00 0.00 66 1021.8
20260831110011 72 303 5.0 10.0 0.00 0.04 0.00 69 1021.9
20260831105540 72 298 1.0 11.0 0.00 0.04 0.00 70 1021.9
20260831105007 72 355 4.0 11.0 0.00 0.04 0.00 69 1021.9
20260831104516 73 289 5.0 10.0 0.00 0.04 0.00 70 1021.9
20260831104008 73 315 2.0 11.0 0.00 0.04 0.00 72 1021.9
20260831103511 72 286 4.0 11.0 0.00 0.04 0.00 70 1021.9
20260831103014 72 336 3.0 10.0 0.00 0.04 0.00 71 1022.0
20260831102521 72 306 5.0 9.0 0.00 0.04 0.00 71 1022.1
20260831102010 72 11 4.0 9.0 0.00 0.04 0.00 71 1022.0
20260831101518 72 298 3.0 9.0 0.00 0.04 0.00 69 1022.0
20260831101010 72 277 3.0 8.0 0.00 0.04 0.00 69 1021.9
20260831100518 72 314 2.0 8.0 0.00 0.04 0.00 69 1021.8
20260831100042 72 266 3.0 9.0 0.00 0.04 0.00 69 1021.9
20260831095514 72 289 3.0 7.0 0.00 0.04 0.00 70 1021.9
20260831095022 71 290 1.0 7.0 0.00 0.04 0.00 70 1021.8
20260831094531 71 306 3.0 9.0 0.00 0.04 0.00 70 1021.8
20260831094018 71 311 3.0 11.0 0.00 0.04 0.00 71 1021.7
20260831093526 71 302 5.0 10.0 0.00 0.04 0.00 70 1021.7
20260831093014 71 313 3.0 10.0 0.00 0.04 0.00 70 1021.7
20260831092523 71 270 5.0 10.0 0.00 0.04 0.00 70 1021.7
20260831092011 70 341 2.0 6.0 0.00 0.04 0.00 73 1021.6
20260831091520 70 274 1.0 6.0 0.00 0.04 0.00 73 1021.7
20260831091007 70 273 2.0 8.0 0.00 0.04 0.00 73 1021.7
20260831090516 70 264 2.0 7.0 0.00 0.04 0.00 73 1021.6
20260831090024 70 262 3.0 6.0 0.00 0.04 0.00 73 1021.7
20260831085512 70 263 1.0 6.0 0.00 0.04 0.00 74 1021.6
20260831085018 70 321 4.0 9.0 0.00 0.04 0.00 73 1021.6
20260831084507 70 257 5.0 9.0 0.00 0.04 0.00 73 1021.5
20260831084015 70 299 3.0 7.0 0.00 0.04 0.00 74 1021.5
20260831083523 69 279 1.0 5.0 0.00 0.04 0.00 76 1021.5
20260831083032 69 279 1.0 6.0 0.00 0.04 0.00 79 1021.5
20260831082518 69 279 3.0 5.0 0.00 0.04 0.00 79 1021.3
20260831082028 69 279 1.0 5.0 0.00 0.04 0.00 81 1021.3
20260831081515 68 279 2.0 5.0 0.00 0.04 0.00 83 1021.5
20260831081022 68 289 0.0 1.0 0.00 0.04 0.00 85 1021.4
20260831080510 67 289 0.0 0.0 0.00 0.04 0.00 87 1021.5
20260831080039 66 289 0.0 0.0 0.00 0.04 0.00 88 1021.4
20260831075526 66 289 0.0 0.0 0.00 0.04 0.00 90 1021.4
20260831075014 65 289 0.0 0.0 0.00 0.04 0.00 92 1021.3
20260831074544 65 289 0.0 0.0 0.00 0.04 0.00 94 1021.3
20260831074008 65 289 0.0 0.0 0.00 0.04 0.00 95 1021.2
20260831073517 64 289 0.0 0.0 0.00 0.04 0.00 96 1021.2
20260831073046 64 289 0.0 0.0 0.00 0.04 0.00 96 1021.1
20260831072534 63 289 0.0 0.0 0.00 0.04 0.00 96 1021.1
20260831072022 63 289 0.0 0.0 0.00 0.04 0.00 97 1021.0
20260831071531 62 289 0.0 0.0 0.00 0.04 0.00 97 1021.0
20260831071018 62 289 0.0 0.0 0.00 0.04 0.00 97 1020.9
20260831070526 62 289 0.0 0.0 0.00 0.04 0.00 97 1021.0
20260831070014 61 289 0.0 0.0 0.00 0.04 0.00 96 1021.0
20260831065524 61 289 0.0 0.0 0.00 0.04 0.00 96 1020.9
20260831065031 61 289 0.0 0.0 0.00 0.04 0.00 96 1020.8
20260831064519 61 289 0.0 0.0 0.00 0.04 0.00 96 1020.8
20260831064021 61 289 0.0 0.0 0.00 0.04 0.00 96 1020.9
20260831063509 61 289 0.0 0.0 0.00 0.04 0.00 95 1020.8
20260831063015 61 289 0.0 0.0 0.00 0.04 0.00 95 1020.7
20260831062524 61 289 0.0 0.0 0.00 0.04 0.00 95 1020.8
20260831062011 61 289 0.0 0.0 0.00 0.04 0.00 95 1020.8
20260831061518 61 289 0.0 0.0 0.00 0.04 0.00 95 1020.8
20260831061027 61 289 0.0 0.0 0.00 0.04 0.00 95 1020.7
20260831060514 61 289 0.0 0.0 0.00 0.04 0.00 95 1020.7
20260831060043 61 289 0.0 0.0 0.00 0.04 0.00 94 1020.6
20260831055511 61 289 0.0 0.0 0.00 0.04 0.00 94 1020.6
20260831055019 61 289 0.0 0.0 0.00 0.04 0.00 94 1020.5
20260831054547 61 289 0.0 0.0 0.00 0.04 0.00 94 1020.7
20260831054013 61 289 0.0 0.0 0.00 0.04 0.00 93 1020.6
20260831053521 61 289 0.0 0.0 0.00 0.04 0.00 94 1020.5
20260831053030 62 289 0.0 0.0 0.00 0.04 0.00 93 1020.4
20260831052516 62 289 0.0 0.0 0.00 0.04 0.00 93 1020.4
20260831052021 62 289 0.0 0.0 0.00 0.04 0.00 93 1020.4
20260831051509 62 289 0.0 0.0 0.00 0.04 0.00 93 1020.5
20260831051018 62 289 0.0 0.0 0.00 0.04 0.00 94 1020.4
20260831050526 62 289 0.0 0.0 0.00 0.04 0.00 94 1020.3
20260831050013 62 289 0.0 0.0 0.00 0.04 0.00 94 1020.3
20260831045521 62 289 0.0 0.0 0.00 0.04 0.00 94 1020.3
20260831045030 62 289 0.0 0.0 0.00 0.04 0.00 94 1020.3
20260831044517 62 289 0.0 0.0 0.00 0.04 0.00 94 1020.3
20260831044024 62 289 0.0 0.0 0.00 0.04 0.00 94 1020.3
20260831043513 62 289 0.0 0.0 0.00 0.04 0.00 93 1020.2
20260831043042 62 289 0.0 0.0 0.00 0.04 0.00 93 1020.3
20260831042508 62 289 0.0 0.0 0.00 0.04 0.00 93 1020.3
20260831042016 62 289 0.0 0.0 0.00 0.04 0.00 93 1020.3
20260831041523 62 289 0.0 0.0 0.00 0.04 0.00 93 1020.3
20260831041012 62 289 0.0 0.0 0.00 0.04 0.00 93 1020.4
20260831040540 62 289 0.0 0.0 0.00 0.04 0.00 93 1020.3
20260831040008 62 289 0.0 0.0 0.00 0.04 0.00 93 1020.4
20260831035514 62 289 0.0 0.0 0.00 0.04 0.00 93 1020.3
20260831035022 62 289 0.0 0.0 0.00 0.04 0.00 92 1020.3
20260831034509 62 289 0.0 0.0 0.00 0.04 0.00 92 1020.5
20260831034015 62 289 0.0 0.0 0.00 0.04 0.00 92 1020.3
20260831033523 63 289 0.0 0.0 0.00 0.04 0.00 92 1020.3
20260831033032 63 289 0.0 0.0 0.00 0.04 0.00 92 1020.4
20260831032518 63 289 0.0 0.0 0.00 0.04 0.00 92 1020.4
20260831032027 63 289 0.0 0.0 0.00 0.04 0.00 92 1020.4
20260831031514 63 289 0.0 0.0 0.00 0.04 0.00 92 1020.3
20260831031023 63 289 0.0 0.0 0.00 0.04 0.00 92 1020.3
20260831030532 63 289 0.0 0.0 0.00 0.04 0.00 92 1020.2
20260831030020 63 289 0.0 0.0 0.00 0.20 0.00 92 1020.3
20260831025508 63 289 0.0 0.0 0.00 0.20 0.00 92 1020.2
20260831025015 63 289 0.0 0.0 0.00 0.20 0.00 92 1020.1
20260831024522 63 289 0.0 0.0 0.00 0.20 0.00 92 1020.1
20260831024011 63 289 0.0 0.0 0.00 0.20 0.00 92 1020.1
20260831023520 63 289 0.0 0.0 0.00 0.20 0.00 91 1020.1
20260831023028 63 289 0.0 0.0 0.00 0.20 0.00 91 1020.1
20260831022516 63 289 0.0 0.0 0.00 0.20 0.00 91 1020.0
20260831022023 63 289 0.0 0.0 0.00 0.20 0.00 91 1020.1
20260831021512 64 289 0.0 0.0 0.00 0.20 0.00 91 1020.1
20260831021020 64 289 0.0 0.0 0.00 0.20 0.00 90 1020.0
20260831020506 64 289 0.0 0.0 0.00 0.20 0.00 90 1020.0
20260831020014 64 289 0.0 0.0 0.00 0.28 0.00 90 1019.9
20260831015522 64 289 0.0 0.0 0.00 0.28 0.00 89 1020.0
20260831015011 64 289 0.0 0.0 0.00 0.28 0.00 89 1020.1
20260831014539 64 289 0.0 0.0 0.00 0.28 0.00 89 1020.0
20260831014026 64 289 0.0 0.0 0.00 0.28 0.00 88 1020.1
20260831013514 64 289 0.0 0.0 0.00 0.28 0.00 88 1019.9
20260831013022 64 289 0.0 0.0 0.00 0.28 0.00 88 1020.0
20260831012532 64 289 0.0 0.0 0.00 0.28 0.00 88 1020.1
20260831012038 64 289 0.0 0.0 0.00 0.28 0.00 88 1020.1
20260831011525 65 289 0.0 0.0 0.00 0.28 0.00 88 1020.1
20260831011013 65 289 0.0 0.0 0.00 0.28 0.00 87 1020.2
20260831010542 65 289 0.0 0.0 0.00 0.28 0.00 87 1020.2
20260831010009 65 289 0.0 0.0 0.00 0.28 0.00 86 1020.2
20260831005518 65 289 0.0 0.0 0.00 0.28 0.00 86 1020.3
20260831005047 66 289 0.0 0.0 0.00 0.28 0.00 86 1020.3
20260831004513 66 289 0.0 0.0 0.00 0.28 0.00 85 1020.3
20260831004021 66 289 0.0 0.0 0.00 0.28 0.00 85 1020.4
20260831003509 66 289 0.0 0.0 0.00 0.28 0.00 85 1020.4
20260831003014 66 289 0.0 0.0 0.00 0.28 0.00 85 1020.5
20260831002522 66 289 0.0 0.0 0.00 0.28 0.00 85 1020.4
20260831002009 66 289 0.0 0.0 0.00 0.28 0.00 85 1020.5
20260831001538 66 289 0.0 0.0 0.00 0.28 0.00 85 1020.4
20260831001025 66 289 0.0 3.0 0.00 0.28 0.00 85 1020.4
20260831000513 66 289 1.0 3.0 0.00 0.28 0.00 85 1020.4
20260831000021 66 289 0.0 0.0 0.00 0.28 0.06 85 1020.6
20260830235509 66 289 0.0 0.0 0.00 0.28 0.06 85 1020.7
20260830235017 66 289 0.0 0.0 0.00 0.28 0.06 85 1020.6
20260830234525 66 289 0.0 1.0 0.00 0.28 0.06 85 1020.6
20260830234013 66 289 0.0 7.0 0.00 0.28 0.06 86 1020.6
20260830233521 66 289 2.0 7.0 0.00 0.28 0.06 86 1020.7
20260830233010 66 299 1.0 3.0 0.00 0.28 0.06 86 1020.7
20260830232517 66 300 0.0 0.0 0.00 0.28 0.06 86 1020.7
20260830232025 66 300 0.0 0.0 0.00 0.28 0.06 86 1020.7
20260830231535 66 300 0.0 0.0 0.00 0.28 0.06 86 1020.7
20260830231022 66 300 0.0 0.0 0.00 0.28 0.06 87 1020.8
20260830230510 66 300 0.0 1.0 0.00 0.28 0.06 87 1020.7
20260830230018 66 300 0.0 1.0 0.00 0.28 0.06 87 1020.7
20260830225525 66 300 0.0 0.0 0.00 0.28 0.06 87 1020.8
20260830225013 66 300 0.0 0.0 0.00 0.28 0.06 87 1020.7
20260830224542 66 300 0.0 0.0 0.00 0.28 0.06 87 1020.8
20260830224010 66 300 0.0 0.0 0.00 0.28 0.06 87 1020.7
20260830223518 66 300 0.0 0.0 0.00 0.28 0.06 87 1020.6
20260830223010 66 300 0.0 0.0 0.00 0.28 0.06 87 1020.6
20260830222519 66 300 0.0 0.0 0.00 0.28 0.06 87 1020.5
20260830222022 66 300 0.0 0.0 0.00 0.28 0.06 87 1020.6
20260830221514 66 300 0.0 0.0 0.00 0.28 0.06 87 1020.5
20260830221022 66 300 0.0 0.0 0.00 0.28 0.06 87 1020.5
20260830220511 66 300 0.0 0.0 0.00 0.28 0.06 87 1020.4
20260830220017 66 300 0.0 0.0 0.00 0.31 0.06 87 1020.4
20260830215525 66 300 0.0 0.0 0.00 0.31 0.06 87 1020.3
20260830215013 66 300 0.0 0.0 0.00 0.31 0.06 87 1020.4
20260830214542 66 300 0.0 0.0 0.00 0.31 0.06 87 1020.3
20260830214009 66 300 0.0 0.0 0.00 0.31 0.06 86 1020.3
20260830213517 66 300 0.0 0.0 0.00 0.31 0.06 86 1020.3
20260830213046 66 300 0.0 0.0 0.00 0.31 0.06 86 1020.2
20260830212513 66 300 0.0 0.0 0.00 0.31 0.06 85 1020.1
20260830212039 66 300 0.0 0.0 0.00 0.31 0.06 85 1020.1
20260830211526 66 300 0.0 0.0 0.00 0.31 0.06 84 1020.1
20260830211014 67 300 0.0 0.0 0.00 0.31 0.06 84 1020.0
20260830210522 67 300 0.0 0.0 0.00 0.31 0.06 83 1020.1
20260830210031 67 300 0.0 0.0 0.00 0.39 0.06 83 1020.0
20260830205518 67 300 0.0 0.0 0.00 0.39 0.06 82 1019.9
20260830205007 67 300 0.0 0.0 0.00 0.39 0.06 81 1019.8
20260830204515 67 300 0.0 0.0 0.00 0.39 0.06 81 1019.9
20260830204042 67 300 0.0 0.0 0.00 0.39 0.06 81 1019.7
20260830203509 68 300 0.0 0.0 0.00 0.39 0.06 81 1019.7
20260830203017 68 300 0.0 0.0 0.00 0.39 0.06 81 1019.7
20260830202526 68 300 0.0 0.0 0.00 0.39 0.06 80 1019.6
20260830202012 68 300 0.0 0.0 0.00 0.39 0.06 80 1019.6
20260830201520 68 300 0.0 0.0 0.00 0.39 0.06 79 1019.5
20260830201030 68 300 0.0 0.0 0.00 0.39 0.06 79 1019.4
20260830200516 68 300 0.0 0.0 0.00 0.39 0.06 79 1019.4
20260830200024 68 300 0.0 0.0 0.00 0.39 0.06 79 1019.3
20260830195512 68 300 0.0 0.0 0.00 0.39 0.06 78 1019.3
20260830195018 69 300 0.0 0.0 0.00 0.39 0.06 78 1019.2
20260830194527 69 300 0.0 0.0 0.00 0.39 0.06 78 1019.1
20260830194036 69 300 0.0 0.0 0.00 0.39 0.06 78 1019.0
20260830193524 69 300 0.0 0.0 0.00 0.39 0.06 78 1019.0
20260830193012 69 300 0.0 0.0 0.00 0.39 0.06 78 1018.9
20260830192520 69 300 0.0 1.0 0.00 0.39 0.06 78 1018.8
20260830192008 69 300 0.0 2.0 0.00 0.39 0.06 78 1018.8
20260830191517 69 300 0.0 2.0 0.00 0.39 0.06 78 1018.7
20260830191045 70 300 0.0 3.0 0.00 0.39 0.06 78 1018.6
20260830190533 70 300 1.0 5.0 0.00 0.39 0.06 78 1018.6
20260830190020 70 300 0.0 5.0 0.00 0.39 0.06 77 1018.6
20260830185508 70 302 1.0 4.0 0.00 0.39 0.06 77 1018.5
20260830185016 70 302 1.0 5.0 0.00 0.39 0.06 77 1018.5
20260830184525 71 305 1.0 5.0 0.00 0.39 0.06 76 1018.5
20260830184013 71 305 1.0 4.0 0.00 0.39 0.06 76 1018.5
20260830183543 71 305 1.0 5.0 0.00 0.39 0.06 76 1018.4
20260830183010 71 305 1.0 5.0 0.00 0.39 0.06 75 1018.4
20260830182518 71 296 0.0 7.0 0.00 0.39 0.06 75 1018.4
20260830182028 71 296 3.0 8.0 0.00 0.39 0.06 75 1018.3
20260830181514 72 299 1.0 8.0 0.00 0.39 0.06 75 1018.3
20260830181020 72 291 3.0 8.0 0.00 0.39 0.06 74 1018.3
20260830180508 72 295 2.0 9.0 0.00 0.39 0.06 73 1018.3
20260830180015 72 299 4.0 9.0 0.00 0.39 0.06 72 1018.3
20260830175543 72 309 0.0 6.0 0.00 0.39 0.06 73 1018.3
20260830175010 72 306 2.0 8.0 0.00 0.39 0.06 72 1018.2
20260830174539 73 306 3.0 8.0 0.00 0.39 0.06 71 1018.2
20260830174027 73 265 4.0 8.0 0.00 0.39 0.06 71 1018.1
20260830173514 73 275 2.0 8.0 0.00 0.39 0.06 71 1018.0
20260830173040 73 290 2.0 8.0 0.00 0.39 0.06 71 1018.1
20260830172507 73 291 2.0 9.0 0.00 0.39 0.06 73 1018.0
20260830172015 73 5 3.0 9.0 0.00 0.39 0.06 73 1018.1
20260830171523 73 292 3.0 8.0 0.00 0.39 0.06 73 1018.0
20260830171011 73 355 1.0 8.0 0.00 0.39 0.06 74 1017.9
20260830170520 73 344 2.0 6.0 0.00 0.39 0.06 74 1017.9
20260830170029 73 355 2.0 9.0 0.00 0.39 0.06 73 1017.9
20260830165517 73 25 4.0 9.0 0.00 0.39 0.06 73 1017.9
20260830165025 73 355 3.0 9.0 0.00 0.39 0.06 73 1017.8
20260830164514 73 319 1.0 11.0 0.00 0.39 0.06 73 1017.8
20260830164020 73 328 4.0 11.0 0.00 0.39 0.06 73 1017.7
20260830163508 73 355 5.0 10.0 0.00 0.39 0.06 72 1017.6
20260830163016 73 340 3.0 9.0 0.00 0.39 0.06 72 1017.6
20260830162523 74 12 2.0 10.0 0.00 0.39 0.06 73 1017.5
20260830162031 73 19 5.0 10.0 0.00 0.39 0.06 72 1017.5
20260830161538 74 346 1.0 10.0 0.00 0.39 0.06 72 1017.4
20260830161026 73 307 2.0 9.0 0.00 0.39 0.06 72 1017.4
20260830160516 74 355 5.0 10.0 0.00 0.39 0.06 72 1017.4
20260830160023 74 314 3.0 10.0 0.00 0.39 0.06 72 1017.4
20260830155533 74 339 3.0 9.0 0.00 0.39 0.06 71 1017.4
20260830155019 74 336 2.0 9.0 0.00 0.39 0.06 71 1017.4
20260830154507 74 9 1.0 10.0 0.00 0.39 0.06 71 1017.4
20260830154015 74 286 2.0 13.0 0.00 0.39 0.06 71 1017.3
20260830153544 74 346 6.0 13.0 0.00 0.39 0.06 70 1017.3
20260830153011 74 321 3.0 10.0 0.00 0.39 0.06 69 1017.2
20260830152540 74 344 5.0 11.0 0.00 0.39 0.06 69 1017.1
20260830152008 74 304 3.0 11.0 0.00 0.39 0.06 69 1017.1
20260830151517 74 321 4.0 11.0 0.00 0.39 0.06 68 1017.1
20260830151025 74 277 4.0 12.0 0.00 0.39 0.06 69 1017.1
20260830150515 74 294 5.0 12.0 0.00 0.39 0.06 69 1017.2
20260830150023 74 329 4.0 11.0 0.00 0.39 0.06 70 1017.2
20260830145533 74 26 5.0 11.0 0.00 0.39 0.06 69 1017.2